Danbury, CT

7:42 AM EST on February 14, 2016 (GMT -0500)
Danbury Municipal

Weather History for KDXR - November, 2000

Change the Weather History Date:

Monday, November 13, 2000

  Actual Average Record
Temperature  
Mean Temperature 38 °F -  
Max Temperature 46 °F 48 °F 69 °F (1964)
Min Temperature 30 °F 33 °F 17 °F (2013)
Degree Days  
Heating Degree Days 27    
Moisture  
Dew Point 36 °F    
Average Humidity 86    
Maximum Humidity 100    
Minimum Humidity 73    
Precipitation  
Precipitation 0.00 in - - ()
Sea Level Pressure  
Sea Level Pressure 30.08 in    
Wind  
Wind Speed 2 mph (SSE)    
Max Wind Speed 7 mph    
Max Gust Speed -    
Visibility 10 miles    
Events      
Averages and records for this station are not official NWS values.
T = Trace of Precipitation, MM = Missing Value Source: NWS Daily Summary

Daily Weather History Graph

Daily Weather History Graph

Search for Another Location

Airport or City:

Trip Planner

Search our weather history database for the weather conditions in past years. The results will help you decide how hot, cold, wet, or windy it might be!

Date:

Astronomy

Nov. 13, 2000 Rise Set
Actual Time 6:40 AM EST 4:35 PM EST
Civil Twilight 6:10 AM EST 5:05 PM EST
Nautical Twilight 5:37 AM EST 5:38 PM EST
Astronomical Twilight 5:04 AM EST 6:11 PM EST
Moon 6:19 PM EST (11/13) 8:24 AM EST (11/13)
Length of Visible Light 10h 54m
Length of Day
9h 55m
Waning Gibbous, 96% of the Moon is Illuminated
Nov 13
Waning Gibbous
Nov 18
Last Quarter
Nov 25
New
Dec 3
First Quarter
Dec 11
Full

Hourly Weather History & Observations

Time (EST) Temp. Windchill Dew Point Humidity Pressure Visibility Wind Dir Wind Speed Gust Speed Precip Events Conditions
12:53 AM 32.0 °F - 30.0 °F 92% 30.07 in 10.0 mi Calm Calm - N/A   Clear
1:53 AM 30.9 °F 27.5 °F 28.9 °F 92% 30.09 in 10.0 mi WSW 3.5 mph - N/A   Clear
2:53 AM 30.0 °F - 30.0 °F 100% 30.10 in 9.0 mi Calm Calm - N/A   Clear
3:53 AM 30.0 °F - 30.0 °F 100% 30.09 in 6.0 mi Calm Calm - N/A   Clear
4:36 AM 30.2 °F - 28.4 °F 93% 30.08 in 7.0 mi Calm Calm - N/A   Scattered Clouds
4:44 AM 30.2 °F - 28.4 °F 93% 30.08 in 9.0 mi Calm Calm - N/A   Mostly Cloudy
4:53 AM 30.0 °F 25.2 °F 30.0 °F 100% 30.10 in 7.0 mi WSW 4.6 mph - N/A   Overcast
5:39 AM 33.8 °F - 32.0 °F 93% 30.10 in 10.0 mi Calm Calm - N/A   Overcast
5:53 AM 34.0 °F - 32.0 °F 92% 30.12 in 10.0 mi Calm Calm - N/A   Overcast
6:53 AM 36.0 °F - 34.0 °F 93% 30.12 in 10.0 mi Calm Calm - N/A   Overcast
7:53 AM 37.0 °F - 35.1 °F 93% 30.13 in 9.0 mi Calm Calm - N/A   Overcast
8:53 AM 39.0 °F - 36.0 °F 89% 30.14 in 10.0 mi Calm Calm - N/A   Overcast
9:53 AM 41.0 °F - 36.0 °F 82% 30.14 in 10.0 mi Calm Calm - N/A   Overcast
10:53 AM 43.0 °F - 37.0 °F 80% 30.12 in 10.0 mi Calm Calm - N/A   Overcast
11:53 AM 44.1 °F - 37.0 °F 76% 30.10 in 10.0 mi Calm Calm - N/A   Overcast
12:53 PM 45.0 °F - 37.9 °F 76% 30.07 in 10.0 mi Calm Calm - N/A   Overcast
1:53 PM 46.0 °F - 37.9 °F 73% 30.07 in 10.0 mi Calm Calm - N/A   Overcast
2:53 PM 46.9 °F - 39.0 °F 74% 30.06 in 10.0 mi Calm Calm - N/A   Overcast
3:53 PM 46.9 °F - 39.0 °F 74% 30.06 in 10.0 mi South 3.5 mph - N/A   Overcast
4:53 PM 46.0 °F 43.1 °F 39.0 °F 76% 30.06 in 10.0 mi SSE 5.8 mph - N/A   Overcast
5:53 PM 46.0 °F 42.5 °F 39.9 °F 79% 30.05 in 10.0 mi SE 6.9 mph - N/A   Overcast
6:53 PM 45.0 °F 42.6 °F 39.9 °F 82% 30.05 in 10.0 mi SE 4.6 mph - N/A   Overcast
7:53 PM 45.0 °F 42.6 °F 39.9 °F 82% 30.04 in 10.0 mi SE 4.6 mph - N/A   Overcast
8:53 PM 45.0 °F 42.6 °F 41.0 °F 86% 30.06 in 10.0 mi South 4.6 mph - N/A   Overcast
9:28 PM 44.6 °F 40.7 °F 41.0 °F 87% 30.04 in 10.0 mi SSE 6.9 mph - N/A   Overcast
9:53 PM 46.0 °F 44.8 °F 41.0 °F 83% 30.04 in 10.0 mi SSE 3.5 mph - N/A   Overcast
10:53 PM 46.0 °F 42.5 °F 42.1 °F 86% 30.02 in 10.0 mi SSE 6.9 mph - N/A   Overcast
11:53 PM 46.0 °F 43.9 °F 43.0 °F 89% 30.02 in 10.0 mi South 4.6 mph - N/A   Overcast